Location: Newark
(7.0858°N, 171.3717°E)
Time: 07:57:22
(UTC+00:00)

Courier 1B - Pass Details

Date: 26 November 2020
Orbit: 962 x 1209 km, 28.3° (Epoch: 20 January)

Event Time Altitude Azimuth Distance (km) Brightness Sun altitude
Rises 14:33:48 0° 314° (NW) 3,940 - -55.2°
Reaches altitude 10° 14:38:01 10° 336° (NNW) 3,032 - -54.3°
Maximum altitude 14:42:08 15° 10° (N) 2,695 - -53.4°
Drops below altitude 10° 14:46:19 10° 43° (NE) 3,107 - -52.4°
Exits shadow 14:48:47 - 57° (ENE) 3,614 10.7 -51.9°
Sets 14:50:44 0° 65° (ENE) 4,095 11.1 -51.4°
